Station GDMM5 - 9099090 - Grand Marais, MN Image indicating link to RSS feed of recent meteorological observations for station GDMM5


Conditions at GDMM5 as of
(5:30 am CDT)
1030 GMT on 04/14/2024:
     

Click on the graph icon in the table below to see a time series plot of the last five days of that observation.

5-day plot - Atmospheric Pressure Atmospheric Pressure (PRES):29.63 in
5-day plot - Air Temperature Air Temperature (ATMP): 36.9 °F
5-day plot - Dew Point Dew Point (DEWP): 36.9 °F
NOS Water Level Observation Network Water Level
Previous observations
TIME
(CDT)
5-day plot - Wind Direction
WDIR
 
5-day plot - Wind Speed
WSPD
kts
5-day plot - Wind Gust
GST
kts
5-day plot - Wave Height
WVHT
ft
5-day plot - Dominant Wave Period
DPD
sec
5-day plot - Average Wave Period
APD
sec
5-day plot - Mean Wave Direction
MWD
 
5-day plot - Atmospheric Pressure
PRES
in
5-day plot - Pressure Tendency
PTDY
in
5-day plot - Air Temperature
ATMP
°F
5-day plot - Water Temperature
WTMP
°F
5-day plot - Dew Point
DEWP
°F
5-day plot - Salinity
SAL
psu
5-day plot - Visibility
VIS
nmi
5-day plot - Tide (above MLLW)
TIDE
ft
2024-04-14 05:24 am-------29.63- 37.0- 37.0---
2024-04-14 05:18 am-------29.62- 37.4- 37.4---
2024-04-14 05:12 am-------29.62- 37.8- 37.8---
2024-04-14 05:06 am-------29.62- 37.2- 37.2---
2024-04-14 05:00 am--------- 37.0- 37.0---
2024-04-14 04:54 am--------- 37.4- 37.4---
2024-04-14 04:48 am--------- 37.2- 37.2---
2024-04-14 04:42 am--------- 37.2- 37.2---
2024-04-14 04:36 am--------- 37.9- 37.9---
2024-04-14 04:30 am-------29.60-------
2024-04-14 04:24 am-------29.59-------
2024-04-14 04:18 am-------29.59- 37.4- 37.4---
2024-04-14 04:12 am-------29.59- 37.6- 37.6---
2024-04-14 04:06 am-------29.59- 37.0- 37.0---
2024-04-14 04:00 am-------29.60-0.02 37.0- 37.0---
2024-04-14 03:54 am-------29.60- 36.7- 36.7---
2024-04-14 03:48 am-------29.59- 36.7- 36.7---
2024-04-14 03:42 am-------29.59- 35.6- 35.6---
2024-04-14 03:36 am-------29.59- 35.4- 35.4---
2024-04-14 03:30 am-------29.59- 35.6- 35.6---
2024-04-14 03:24 am-------29.59- 35.8- 35.8---
2024-04-14 03:18 am-------29.59- 35.6- 35.6---
2024-04-14 03:12 am-------29.59- 34.9- 34.9---
2024-04-14 03:06 am-------29.59- 34.5- 34.5---
2024-04-14 03:00 am-------29.59-0.04 34.5- 34.5---
2024-04-14 02:54 am-------29.59- 34.2- 34.2---
2024-04-14 02:48 am-------29.59- 34.2- 34.2---
2024-04-14 02:42 am-------29.59- 33.8- 33.8---
2024-04-14 02:36 am-------29.59- 33.8- 33.8---
2024-04-14 02:30 am-------29.59- 33.8- 33.8---
2024-04-14 02:24 am-------29.59- 33.8- 33.8---
2024-04-14 02:18 am-------29.59- 34.0- 34.0---
2024-04-14 02:12 am-------29.60- 34.0- 34.0---
2024-04-14 02:06 am-------29.60- 33.8- 33.8---
2024-04-14 02:00 am-------29.60-0.04 33.8- 33.8---
2024-04-14 01:54 am-------29.60- 33.6- 33.6---
2024-04-14 01:48 am-------29.60- 33.8- 33.8---
2024-04-14 01:42 am-------29.60- 33.8- 33.8---
2024-04-14 01:36 am-------29.61- 34.0- 34.0---
2024-04-14 01:30 am-------29.61- 34.2- 34.2---
2024-04-14 01:24 am-------29.61- 33.8- 33.8---
2024-04-14 01:18 am-------29.62- 34.3- 34.3---
2024-04-14 01:12 am-------29.62- 34.7- 34.7---
2024-04-14 01:06 am-------29.62- 35.4- 35.4---
2024-04-14 01:00 am-------29.62-0.04 35.4- 35.4---
2024-04-14 12:54 am-------29.63- 34.9- 34.9---
2024-04-14 12:48 am-------29.63- 35.1- 35.1---
2024-04-14 12:42 am-------29.63- 34.2- 34.2---
2024-04-14 12:36 am-------29.63- 34.7- 34.7---
2024-04-14 12:30 am-------29.63- 34.9- 34.9---
2024-04-14 12:24 am-------29.63- 35.1- 35.1---
2024-04-14 12:18 am-------29.63- 35.1- 35.1---
2024-04-14 12:12 am-------29.63- 35.6- 35.6---
2024-04-14 12:06 am-------29.63- 35.8- 35.8---
2024-04-14 12:00 am-------29.63-0.07 36.1- 36.1---
2024-04-13 11:54 pm-------29.63- 36.5- 36.5---
2024-04-13 11:48 pm-------29.63- 36.3- 36.3---
2024-04-13 11:42 pm-------29.64- 36.3- 36.3---
2024-04-13 11:36 pm-------29.64- 36.3- 36.3---
2024-04-13 11:30 pm-------29.64- 36.5- 36.5---
2024-04-13 11:24 pm-------29.64- 36.7- 36.7---
2024-04-13 11:18 pm-------29.64- 37.0- 37.0---
2024-04-13 11:12 pm-------29.64- 36.9- 36.9---
2024-04-13 11:06 pm-------29.64- 36.9- 36.9---
2024-04-13 11:00 pm-------29.64-0.06 37.0- 37.0---
2024-04-13 10:54 pm-------29.64- 37.2- 37.2---
2024-04-13 10:48 pm-------29.64- 37.4- 37.4---
2024-04-13 10:42 pm-------29.64- 37.6- 37.6---
2024-04-13 10:36 pm-------29.65- 37.9- 37.9---
2024-04-13 10:30 pm-------29.65- 38.1- 38.1---
2024-04-13 10:24 pm-------29.66- 38.3- 38.3---
2024-04-13 10:18 pm-------29.66- 38.7- 38.7---
2024-04-13 10:12 pm-------29.66- 39.0- 39.0---
2024-04-13 10:06 pm-------29.66- 39.2- 39.2---
2024-04-13 10:00 pm-------29.67-0.05 39.2- 39.2---
2024-04-13 09:54 pm-------29.67- 39.6- 39.6---
2024-04-13 09:48 pm-------29.68- 39.6- 39.6---
2024-04-13 09:42 pm-------29.69- 39.4- 39.4---
2024-04-13 09:36 pm-------29.69- 39.6- 39.6---
2024-04-13 09:30 pm-------29.69- 39.2- 39.2---
2024-04-13 09:24 pm-------29.69- 38.8- 38.8---
2024-04-13 09:18 pm-------29.70- 39.2- 39.2---
2024-04-13 09:12 pm-------29.70- 39.9- 39.9---
2024-04-13 09:06 pm-------29.71- 39.9- 39.9---
2024-04-13 09:00 pm-------29.71-0.01 39.9- 39.9---
2024-04-13 08:54 pm-------29.70- 39.9- 39.9---
2024-04-13 08:48 pm-------29.71- 39.9- 39.9---
2024-04-13 08:42 pm-------29.71- 39.7- 39.7---
2024-04-13 08:36 pm-------29.71- 39.7- 39.7---
2024-04-13 08:30 pm-------29.70- 39.9- 39.9---
2024-04-13 08:24 pm-------29.70- 39.7- 39.7---
2024-04-13 08:18 pm-------29.70- 39.9- 39.9---
2024-04-13 08:12 pm-------29.70- 39.9- 39.6---
2024-04-13 08:06 pm-------29.70- 39.9- 39.2---
2024-04-13 08:00 pm-------29.70-0.02 40.3- 39.4---
2024-04-13 07:54 pm-------29.70- 40.8- 38.8---
2024-04-13 07:48 pm-------29.71- 40.8- 37.4---
2024-04-13 07:42 pm-------29.71- 40.5- 37.8---
2024-04-13 07:36 pm-------29.71- 40.5- 38.1---
2024-04-13 07:30 pm-------29.70- 40.5- 37.9---
2024-04-13 07:24 pm-------29.71- 40.5- 38.1---
2024-04-13 07:18 pm-------29.72- 40.5- 37.6---
2024-04-13 07:12 pm-------29.72- 40.5- 38.1---
2024-04-13 07:06 pm-------29.72- 40.5- 38.5---
2024-04-13 07:00 pm-------29.72-0.06 40.5- 38.1---
2024-04-13 06:54 pm-------29.73- 40.6- 37.2---
2024-04-13 06:48 pm-------29.74- 40.5- 38.1---
2024-04-13 06:42 pm-------29.73- 40.5- 37.9---
2024-04-13 06:36 pm-------29.72- 39.6- 37.8---
2024-04-13 06:30 pm-------29.73- 41.2- 36.9---
2024-04-13 06:24 pm-------29.74- 40.8- 37.0---
2024-04-13 06:18 pm-------29.73- 40.6- 36.5---
2024-04-13 06:12 pm-------29.73- 40.5- 36.0---
2024-04-13 06:06 pm-------29.72- 39.9- 36.1---
2024-04-13 06:00 pm-------29.72-0.06 39.7- 35.6---
2024-04-13 05:54 pm-------29.73- 39.9- 35.6---
2024-04-13 05:48 pm-------29.73- 41.2- 35.4---
2024-04-13 05:42 pm-------29.72- 41.2- 35.4---
2024-04-13 05:36 pm-------29.73- 42.3- 35.2---
2024-04-13 05:30 pm-------29.73- 41.7- 34.7---
2024-04-13 05:24 pm-------29.73- 42.4- 35.8---
2024-04-13 05:18 pm-------29.73- 42.1- 34.3---
2024-04-13 05:12 pm-------29.72- 41.2- 36.7---
2024-04-13 05:06 pm-------29.72- 40.5- 35.8---
2024-04-13 05:00 pm-------29.73-0.09 39.6- 36.3---
2024-04-13 04:54 pm-------29.74- 38.8- 37.2---
2024-04-13 04:48 pm-------29.74- 38.7- 36.5---
2024-04-13 04:42 pm-------29.75- 38.8- 36.0---
2024-04-13 04:36 pm-------29.76- 39.9- 36.0---
2024-04-13 04:30 pm-------29.77- 39.9- 35.8---
2024-04-13 04:24 pm-------29.77- 40.1- 36.3---
2024-04-13 04:18 pm-------29.78- 39.7- 36.9---
2024-04-13 04:12 pm-------29.78- 40.1- 36.5---
2024-04-13 04:06 pm-------29.78- 41.0- 36.3---
2024-04-13 04:00 pm-------29.78-0.09 41.7- 36.9---
2024-04-13 03:54 pm-------29.78- 40.3- 36.5---
2024-04-13 03:48 pm--------- 40.1-----
2024-04-13 03:42 pm--------- 40.5-----
2024-04-13 03:36 pm--------- 40.3-----
2024-04-13 03:30 pm-------29.80-------
2024-04-13 03:24 pm-------29.79-------
2024-04-13 03:18 pm-------29.78- 39.9- 36.1---
2024-04-13 03:12 pm-------29.78- 40.1- 37.0---
2024-04-13 03:06 pm-------29.78- 40.1- 36.9---
2024-04-13 03:00 pm-------29.79-0.12 39.9-----
2024-04-13 02:54 pm-------29.79- 40.5-----
2024-04-13 02:48 pm-------29.79- 39.6- 37.0---
2024-04-13 02:42 pm-------29.78- 39.6- 36.7---
2024-04-13 02:36 pm-------29.78- 40.3- 37.4---
2024-04-13 02:30 pm-------29.79- 39.7- 36.1---
2024-04-13 02:24 pm-------29.79- 40.1- 36.1---
2024-04-13 02:18 pm-------29.79- 40.1- 35.8---
2024-04-13 02:12 pm-------29.80- 39.2- 36.3---
2024-04-13 02:06 pm-------29.81- 39.9- 36.3---
2024-04-13 02:00 pm-------29.81-0.10 40.1- 36.5---
2024-04-13 01:54 pm-------29.82- 41.2- 35.4---
2024-04-13 01:48 pm-------29.81-------
2024-04-13 01:42 pm-------29.82-------
2024-04-13 01:36 pm-------29.83-------
2024-04-13 01:30 pm-------29.83- 40.6- 36.1---
2024-04-13 01:24 pm-------29.85- 41.0- 37.2---
2024-04-13 01:18 pm-------29.85-------
2024-04-13 01:12 pm-------29.85-------
2024-04-13 01:06 pm-------29.86-------
2024-04-13 01:00 pm-------29.87-0.06 39.2- 36.9---
2024-04-13 12:54 pm-------29.87- 40.3- 37.9---
2024-04-13 12:48 pm-------29.88-------
2024-04-13 12:42 pm-------29.88-------
2024-04-13 12:36 pm-------29.87-------
2024-04-13 12:30 pm-------29.88- 41.2- 35.1---
2024-04-13 12:24 pm-------29.87- 41.0- 35.1---
2024-04-13 12:18 pm-------29.88- 40.3- 34.9---
2024-04-13 12:12 pm-------29.88- 39.9- 34.0---
2024-04-13 12:06 pm-------29.90- 42.3- 33.1---
2024-04-13 12:00 pm-------29.90-0.06 44.1- 31.1---
2024-04-13 11:54 am-------29.90- 44.1- 31.8---
2024-04-13 11:48 am-------29.91- 43.2- 31.5---
2024-04-13 11:42 am-------29.91- 43.3- 31.6---
2024-04-13 11:36 am-------29.91- 44.2- 31.8---
2024-04-13 11:30 am-------29.90-------
2024-04-13 11:24 am-------29.91-------
2024-04-13 11:18 am-------29.91-------
2024-04-13 11:12 am-------29.91-------
2024-04-13 11:06 am-------29.92-------
2024-04-13 11:00 am-------29.92-0.05 43.7- 30.6---
2024-04-13 10:54 am-------29.93- 43.7- 30.9---
2024-04-13 10:48 am-------29.93-------
2024-04-13 10:42 am-------29.93-------
2024-04-13 10:36 am-------29.93-------
2024-04-13 10:30 am-------29.93- 43.0- 31.3---
2024-04-13 10:24 am-------29.93- 42.4- 31.1---
2024-04-13 10:18 am-------29.93- 42.1- 31.3---
2024-04-13 10:12 am-------29.93- 41.5- 31.5---
2024-04-13 10:06 am-------29.93- 41.9- 31.6---
2024-04-13 10:00 am-------29.93- 41.7- 31.6---
2024-04-13 09:54 am-------29.93- 42.3- 32.0---
2024-04-13 09:48 am-------29.94- 41.5- 32.5---
2024-04-13 09:42 am-------29.95- 42.6- 32.0---
2024-04-13 09:36 am-------29.95- 42.4- 32.5---
2024-04-13 09:30 am-------29.94- 40.3- 32.7---
2024-04-13 09:24 am-------29.95- 39.2- 32.9---
2024-04-13 09:18 am-------29.95- 38.8- 33.4---
2024-04-13 09:12 am-------29.95- 40.8- 32.2---
2024-04-13 09:06 am-------29.96- 39.7- 32.4---
2024-04-13 09:00 am-------29.96+0.00 40.3- 31.8---
2024-04-13 08:54 am-------29.96- 40.3- 31.8---
2024-04-13 08:48 am-------29.96- 39.6- 32.7---
2024-04-13 08:42 am-------29.97- 39.4- 33.1---
2024-04-13 08:36 am-------29.97- 39.6- 31.6---
2024-04-13 08:30 am-------29.97- 40.5- 31.5---
2024-04-13 08:24 am-------29.96- 40.6- 31.5---
2024-04-13 08:18 am-------29.97- 39.9- 31.6---
2024-04-13 08:12 am-------29.97- 39.7- 32.4---
2024-04-13 08:06 am-------29.96- 41.4- 32.5---
2024-04-13 08:00 am-------29.96+0.01------
2024-04-13 07:54 am-------29.96-------
2024-04-13 07:48 am-------29.97- 40.3- 32.5---
2024-04-13 07:42 am-------29.97- 39.2- 33.1---
2024-04-13 07:36 am-------29.97- 38.7- 33.8---
2024-04-13 07:30 am-------29.97- 38.7- 35.2---
2024-04-13 07:24 am-------29.97- 39.4- 34.5---
2024-04-13 07:18 am-------29.97- 39.6- 33.4---
2024-04-13 07:12 am-------29.97- 39.9- 33.3---
2024-04-13 07:06 am-------29.97- 39.7- 33.8---
2024-04-13 06:48 am-------29.97-------
2024-04-13 06:42 am-------29.97-------
2024-04-13 06:36 am-------29.97-------
2024-04-13 06:30 am-------29.97-------
2024-04-13 06:24 am-------29.97-------
2024-04-13 06:18 am-------29.97- 38.3- 32.2---
2024-04-13 06:12 am-------29.96- 38.3- 32.7---
2024-04-13 06:06 am-------29.96- 38.7- 32.5---
2024-04-13 06:00 am-------29.96+0.01 39.6- 30.0---
2024-04-13 05:54 am-------29.95- 39.2- 29.8---